Location: Unspecified
(47.0835°N, 11.5736°E)
Time: 00:03:34
(UTC+01:00)

X-37B - Visible Passes

Search period start: 27 January 2022 00:00
Search period end: 06 February 2022 00:00
Orbit: 334 x 337 km, 45.0° (Epoch: 11 January)

Date Brightness Start Highest point End Pass type
(mag) Time Alt. Az. Time Alt. Az. Time Alt. Az.
27 Jan 2.5 18:37:57 10° S 18:39:45 16° SSE 18:39:47 16° SSE visible
28 Jan 1.9 18:57:26 10° SW 18:59:29 26° S 18:59:29 26° S visible
29 Jan 2.6 17:43:24 10° S 17:45:11 15° SSE 17:46:58 10° ESE visible
29 Jan 2.2 19:17:30 10° WSW 19:19:08 28° SW 19:19:08 28° SW visible
30 Jan 1.7 18:02:52 10° SW 18:05:22 28° SSE 18:07:32 12° ESE visible
30 Jan 3.1 19:37:48 10° WSW 19:38:45 19° WSW 19:38:45 19° WSW visible
31 Jan 1.0 18:22:56 10° WSW 18:25:40 44° SSE 18:27:08 22° ESE visible
31 Jan 4.0 19:58:12 10° W 19:58:21 11° W 19:58:21 11° W visible
01 Feb 0.6 18:43:14 10° WSW 18:46:02 56° S 18:46:43 40° ESE visible
02 Feb 0.8 19:03:37 10° W 19:06:20 52° SSW 19:06:20 52° SSW visible
03 Feb 0.8 17:48:39 10° WSW 17:51:27 56° S 17:54:15 10° E visible
03 Feb 2.1 19:24:04 10° W 19:25:59 30° SW 19:25:59 30° SW visible
04 Feb 0.9 18:09:03 10° W 18:11:50 53° S 18:14:27 11° ESE visible
04 Feb 3.3 19:44:42 10° WSW 19:45:41 16° WSW 19:45:41 16° WSW visible
05 Feb 1.5 18:29:30 10° W 18:32:10 38° SSW 18:34:14 15° SE visible
